Location: ????????
(55.4000°N, 39.1167°E)
Time: 15:10:05
(UTC+00:00)

Cosmos 614 Rocket - Pass Details

Date: 19 May 2025
Orbit: 729 x 757 km, 74.1° (Epoch: 21 June)

Event Time Altitude Azimuth Distance (km) Brightness Sun altitude
Exits shadow 23:34:37 11° 194° (SSW) 2,244 5.8 -9.4°
Maximum altitude 23:39:39 68° 113° (ESE) 820 4.2 -9.0°
Drops below altitude 10° 23:44:49 10° 31° (NNE) 2,295 8.2 -8.6°
Sets 23:47:12 0° 29° (NNE) 3,221 9.6 -8.4°
